Regional Weather Roundup
Issued by NWS Midland/Odessa, TX

Skip options and go directly to product.
Home | Oldest Version | Previous Version | Current Version | All | Text Only | Save Text | Print | Product List | Glossary On

Skip product version selection by date and time.   
444
ASUS44 KMAF 021210
RWRMAF
MIDLAND AREA WEATHER ROUNDUP
NATIONAL WEATHER SERVICE MIDLAND TX
700 AM CDT THU OCT 02 2014

...IN SOUTHWEST TEXAS AND SOUTHEAST NEW MEXICO...

CITY           SKY/WX    TMP DP  RH WIND       PRES   REMARKS
ALPINE         CLEAR     61  42  49 E5        30.07R
ANDREWS        FAIR      64  61  91 SW8       29.90R
ARTESIA        NOT AVBL
BIG SPRING     CLEAR     67  62  84 SE8       29.88R
CARLSBAD       CLEAR     62  41  46 CALM      29.93R
DRYDEN           N/A     69  65  86 N3        29.85R
FORT STOCKTON  CLEAR     67  46  47 SW13      29.92R
GUAD PASS      CLEAR     58  35  42 W12       30.07R
HOBBS          CLEAR     57  45  62 W10       29.93
MARFA          CLEAR     55  41  58 NW8       30.06R
MIDLAND AIRPK  CLEAR     71  64  80 SW9       29.88R
MIDLAND INTL   CLEAR     69  64  84 SW12      29.88R
ODESSA         CLEAR     66  62  87 SW6       29.90R
PECOS          CLEAR     61  49  65 W3        29.91R
PRESIDIO       FAIR      67  52  59 CALM      29.93R
SEMINOLE       CLEAR     60  57  89 W10       29.90R
SNYDER         CLEAR     68  64  89 S5        29.85R
WINK           CLEAR     61  51  70 CALM      29.88R
$$
...OTHER STATIONS IN TEXAS...

CITY           SKY/WX    TMP DP  RH WIND       PRES   REMARKS
ABILENE        PTCLDY    76  67  73 S16G26    29.79S
AMARILLO       PTCLDY    54  47  77 N22G35    29.95R
AUSTIN         MOCLDY    78  74  87 S10       29.84R
BROWNSVILLE    CLEAR     81  81 100 SE7       29.84R
CORPUS CHRISTI CLOUDY    80  78  94 S7        29.84R
DALLAS FTW     MOCLDY    78  71  79 S17       29.80R
DEL RIO        CLOUDY    77  73  87 SE8       29.81R
EL PASO        CLEAR     69  34  27 W9        30.00R
HOUSTON INT    MOCLDY    80  77  90 S7        29.87R
LUBBOCK        PTCLDY    56  46  69 NW15G21   29.88R
SAN ANGELO     CLEAR     76  69  79 S14G23    29.83R
SAN ANTONIO    MOCLDY    79  74  84 S10       29.85R
WACO           CLEAR     77  73  87 S9        29.83R
WICHITA FALLS  NOT AVBL
$$
...OTHER LOCATIONS IN NEW MEXICO...

CITY           SKY/WX    TMP DP  RH WIND       PRES   REMARKS
ALAMAGORDO     CLEAR     57  36  44 NE8       30.01R
ALBUQUERQUE    CLEAR     55  31  39 NW16      30.13R
CANNON AFB     PTCLDY    56  44  63 NE14      29.97R
CLOVIS           N/A     55  43  62 N17       29.99R
HOLLOMAN AFB   CLEAR     52  38  60 NE7       30.00R
ROSWELL        CLEAR     54  44  69 CALM      29.96R
RUIDOSO        CLEAR     52  32  46 NW9G18    30.14R
SANTA FE       CLEAR     44  31  60 CALM      30.11R
TRUTH OR CONSE CLEAR     59  37  44 NW12      30.07R
TUCUMCARI      MOCLDY    56  44  64 N18G29    29.98R
$$

USA.gov is the U.S. government's official web portal to all federal, state and local government web resources and services.